Station Historical Data
Daily Summary for April 16, 2012 Units:  Metric    English   Both
« Previous Day
Next Day »
Daily Weekly Monthly Yearly Custom
  High: Low: Average:
Temperature: 22.7 °C 15.6 °C 19.3 °C
Dew Point: 17.9 °C 13.5 °C 16.1 °C
Humidity: 94% 64% 82%
Wind Speed: 27.4km/h 0km/h 9.3km/h
Wind Gust: 32.2km/h - -
Wind- - SW
Pressure: 1021.6 hPa 1013.1 hPa -
Precipitation: 3.3 mm    
Historical Graphs
 
 
Tabular Data for April 16, 2012
Time Temperature Dew Point Pressure Wind Wind Speed Wind Gust Humidity Rainfall Rate (Hourly) Conditions
00:00 22.2 °C 17.3 °C 1013.4 hPa SE 11.3 km/h 22.5 km/h 74% 0 mm
00:02 22.1 °C 17.4 °C 1013.4 hPa SSE 14.5 km/h 19.3 km/h 75% 0 mm
00:07 22.1 °C 17.5 °C 1013.4 hPa South 12.9 km/h 29 km/h 75% 0 mm
00:12 22.1 °C 17.5 °C 1013.4 hPa ESE 19.3 km/h 30.6 km/h 75% 0 mm
00:17 22.1 °C 17.5 °C 1013.1 hPa South 24.1 km/h 24.1 km/h 75% 0 mm
00:22 21.9 °C 17.3 °C 1013.4 hPa SE 20.9 km/h 25.7 km/h 75% 0 mm
00:27 21.8 °C 17.2 °C 1013.4 hPa SE 12.9 km/h 22.5 km/h 75% 0 mm
00:32 21.8 °C 17.4 °C 1013.4 hPa SSE 11.3 km/h 20.9 km/h 76% 0 mm
00:37 21.8 °C 17.4 °C 1013.4 hPa South 14.5 km/h 27.4 km/h 76% 0 mm
00:43 21.7 °C 17.3 °C 1013.8 hPa SSE 9.7 km/h 16.1 km/h 76% 0 mm
00:48 21.7 °C 17.3 °C 1013.4 hPa SSW 11.3 km/h 20.9 km/h 76% 0 mm
00:53 21.6 °C 17.4 °C 1013.4 hPa SE 20.9 km/h 22.5 km/h 77% 0 mm
00:58 21.5 °C 17.3 °C 1013.4 hPa SE 17.7 km/h 19.3 km/h 77% 0 mm
01:03 21.4 °C 17.2 °C 1013.4 hPa SE 11.3 km/h 22.5 km/h 77% 0 mm
01:08 21.3 °C 17.3 °C 1013.4 hPa SSE 17.7 km/h 22.5 km/h 78% 0 mm
01:13 21.3 °C 17.3 °C 1013.4 hPa SSE 14.5 km/h 27.4 km/h 78% 0 mm
01:18 21.2 °C 17.2 °C 1013.4 hPa SSE 16.1 km/h 24.1 km/h 78% 0 mm
01:23 21.2 °C 17.2 °C 1013.4 hPa SSE 16.1 km/h 27.4 km/h 78% 0 mm
01:28 21.1 °C 17.3 °C 1013.4 hPa SE 14.5 km/h 19.3 km/h 79% 0 mm
01:33 21.1 °C 17.3 °C 1013.4 hPa SSE 12.9 km/h 22.5 km/h 79% 0 mm
01:38 20.9 °C 17.2 °C 1013.4 hPa SE 9.7 km/h 22.5 km/h 79% 0 mm
01:43 20.9 °C 17.3 °C 1013.4 hPa SSE 27.4 km/h 27.4 km/h 80% 0 mm
01:48 20.9 °C 17.3 °C 1013.4 hPa SSE 6.4 km/h 17.7 km/h 80% 0 mm
01:53 20.9 °C 17.3 °C 1013.4 hPa SE 17.7 km/h 24.1 km/h 80% 0 mm
01:58 20.8 °C 17.3 °C 1013.4 hPa SSE 9.7 km/h 16.1 km/h 80% 0 mm
02:03 20.8 °C 17.3 °C 1013.4 hPa SE 8 km/h 19.3 km/h 80% 0 mm
02:08 20.9 °C 17.3 °C 1013.8 hPa SSE 12.9 km/h 20.9 km/h 80% 0 mm
02:13 20.9 °C 17.3 °C 1013.8 hPa SSW 8 km/h 19.3 km/h 80% 0 mm
02:18 20.9 °C 17.4 °C 1013.8 hPa SSW 6.4 km/h 19.3 km/h 80% 0 mm
02:23 20.9 °C 17.3 °C 1014.1 hPa SSW 19.3 km/h 19.3 km/h 80% 0 mm
02:28 20.9 °C 17.4 °C 1014.1 hPa South 9.7 km/h 17.7 km/h 80% 0 mm
02:34 20.9 °C 17.5 °C 1013.8 hPa SSE 12.9 km/h 12.9 km/h 81% 0 mm
02:39 20.9 °C 17.5 °C 1014.1 hPa SSW 11.3 km/h 24.1 km/h 81% 0 mm
02:44 20.9 °C 17.5 °C 1014.1 hPa South 20.9 km/h 22.5 km/h 81% 0 mm
02:49 20.8 °C 17.4 °C 1014.1 hPa South 11.3 km/h 17.7 km/h 81% 0 mm
02:50 20.8 °C 17.4 °C 1014.1 hPa SSW 11.3 km/h 17.7 km/h 81% 0 mm
02:55 20.8 °C 17.4 °C 1014.1 hPa SSE 9.7 km/h 24.1 km/h 81% 0 mm
03:00 20.7 °C 17.5 °C 1014.1 hPa SSE 16.1 km/h 19.3 km/h 82% 0 mm
03:05 20.6 °C 17.4 °C 1014.1 hPa SSW 9.7 km/h 16.1 km/h 82% 0 mm
03:10 20.5 °C 17.3 °C 1014.1 hPa South 8 km/h 14.5 km/h 82% 0 mm
03:15 20.4 °C 17.4 °C 1014.1 hPa SSE 14.5 km/h 16.1 km/h 83% 0 mm
03:20 20.3 °C 17.3 °C 1014.1 hPa SE 19.3 km/h 19.3 km/h 83% 0 mm
03:25 20.2 °C 17.4 °C 1014.1 hPa South 14.5 km/h 17.7 km/h 84% 0 mm
03:30 20.2 °C 17.4 °C 1014.1 hPa SSW 6.4 km/h 14.5 km/h 84% 0 mm
03:35 20.1 °C 17.3 °C 1014.1 hPa SSE 11.3 km/h 17.7 km/h 84% 0 mm
03:37 20.1 °C 17.3 °C 1014.1 hPa SSE 9.7 km/h 14.5 km/h 84% 0 mm
03:42 20.1 °C 17.3 °C 1014.1 hPa South 9.7 km/h 20.9 km/h 84% 0 mm
03:47 20.1 °C 17.3 °C 1014.1 hPa South 17.7 km/h 17.7 km/h 84% 0 mm
03:52 20.1 °C 17.3 °C 1014.1 hPa SSW 12.9 km/h 19.3 km/h 84% 0 mm
03:57 20.1 °C 17.3 °C 1014.1 hPa SSE 11.3 km/h 19.3 km/h 84% 0 mm
04:02 20.1 °C 17.4 °C 1014.1 hPa SSW 17.7 km/h 20.9 km/h 85% 0 mm
04:07 20 °C 17.4 °C 1014.1 hPa SSE 19.3 km/h 19.3 km/h 85% 0 mm
04:12 19.9 °C 17.3 °C 1014.1 hPa SSE 12.9 km/h 17.7 km/h 85% 0 mm
04:17 19.8 °C 17.2 °C 1014.1 hPa SSE 14.5 km/h 24.1 km/h 85% 0 mm
04:22 19.8 °C 17.4 °C 1014.1 hPa South 16.1 km/h 32.2 km/h 86% 0 mm
04:27 19.8 °C 17.4 °C 1014.1 hPa SSE 20.9 km/h 29 km/h 86% 0 mm
04:32 19.8 °C 17.4 °C 1014.4 hPa SSW 19.3 km/h 27.4 km/h 86% 0 mm
04:37 19.8 °C 17.4 °C 1014.4 hPa SE 25.7 km/h 25.7 km/h 86% 0 mm
04:42 19.8 °C 17.4 °C 1014.8 hPa SSE 20.9 km/h 20.9 km/h 86% 0 mm
04:48 19.8 °C 17.4 °C 1014.8 hPa SSE 17.7 km/h 19.3 km/h 86% 0 mm
04:53 19.9 °C 17.6 °C 1014.8 hPa SSW 9.7 km/h 27.4 km/h 86% 0 mm
04:58 20 °C 17.6 °C 1014.8 hPa SW 11.3 km/h 27.4 km/h 86% 0 mm
05:03 20 °C 17.6 °C 1014.8 hPa SSE 19.3 km/h 20.9 km/h 86% 0 mm
05:08 20 °C 17.6 °C 1014.8 hPa SSE 9.7 km/h 20.9 km/h 86% 0 mm
05:13 19.9 °C 17.6 °C 1014.8 hPa SW 9.7 km/h 20.9 km/h 86% 0 mm
05:18 19.9 °C 17.5 °C 1014.4 hPa SSW 14.5 km/h 22.5 km/h 86% 0 mm
05:23 19.8 °C 17.4 °C 1014.4 hPa SSE 14.5 km/h 24.1 km/h 86% 0 mm
05:28 19.7 °C 17.3 °C 1014.4 hPa SSE 16.1 km/h 17.7 km/h 86% 0 mm
05:33 19.6 °C 17.3 °C 1014.8 hPa South 8 km/h 12.9 km/h 87% 0 mm
05:38 19.6 °C 17.3 °C 1014.8 hPa SSE 17.7 km/h 17.7 km/h 87% 0 mm
05:43 19.5 °C 17.3 °C 1014.8 hPa SE 9.7 km/h 16.1 km/h 87% 0 mm
05:49 19.5 °C 17.3 °C 1015.1 hPa South 4.8 km/h 19.3 km/h 87% 0 mm
05:54 19.5 °C 17.3 °C 1015.1 hPa SSE 6.4 km/h 14.5 km/h 87% 0 mm
05:59 19.4 °C 17.2 °C 1015.1 hPa SSW 8 km/h 14.5 km/h 87% 0 mm
06:04 19.4 °C 17.2 °C 1015.1 hPa South 8 km/h 17.7 km/h 87% 0 mm
06:09 19.4 °C 17.2 °C 1015.1 hPa SW 12.9 km/h 17.7 km/h 87% 0 mm
06:14 19.4 °C 17.2 °C 1015.1 hPa SSE 8 km/h 14.5 km/h 87% 0 mm
06:19 19.4 °C 17.2 °C 1015.5 hPa SSE 9.7 km/h 14.5 km/h 87% 0 mm
06:24 19.4 °C 17.2 °C 1015.5 hPa SSW 6.4 km/h 16.1 km/h 87% 0 mm
06:29 19.4 °C 17.4 °C 1015.5 hPa SSE 6.4 km/h 17.7 km/h 88% 0 mm
06:34 19.4 °C 17.4 °C 1015.5 hPa South 12.9 km/h 19.3 km/h 88% 0 mm
06:39 19.4 °C 17.4 °C 1015.5 hPa SSW 11.3 km/h 14.5 km/h 88% 0 mm
06:44 19.4 °C 17.4 °C 1015.5 hPa SSE 11.3 km/h 16.1 km/h 88% 0 mm
06:49 19.4 °C 17.4 °C 1015.5 hPa SSE 14.5 km/h 16.1 km/h 88% 0 mm
06:54 19.4 °C 17.4 °C 1015.5 hPa SSW 22.5 km/h 22.5 km/h 88% 0 mm
06:59 19.4 °C 17.4 °C 1015.5 hPa SSW 8 km/h 19.3 km/h 88% 0 mm
07:04 19.4 °C 17.4 °C 1015.8 hPa SSE 12.9 km/h 20.9 km/h 88% 0 mm
07:09 19.4 °C 17.4 °C 1015.5 hPa South 12.9 km/h 17.7 km/h 88% 0 mm
07:14 19.4 °C 17.4 °C 1015.8 hPa SSE 16.1 km/h 17.7 km/h 88% 0 mm
07:19 19.5 °C 17.4 °C 1015.8 hPa South 9.7 km/h 19.3 km/h 88% 0 mm
07:24 19.5 °C 17.4 °C 1015.8 hPa SE 9.7 km/h 14.5 km/h 88% 0 mm
07:29 19.6 °C 17.6 °C 1016.1 hPa SSE 8 km/h 17.7 km/h 88% 0 mm
07:34 19.7 °C 17.6 °C 1016.1 hPa SSW 14.5 km/h 14.5 km/h 88% 0 mm
07:40 19.8 °C 17.7 °C 1016.1 hPa South 9.7 km/h 14.5 km/h 88% 0 mm
07:45 19.8 °C 17.9 °C 1016.8 hPa WNW 12.9 km/h 19.3 km/h 89% 0 mm
07:50 18.9 °C 17.1 °C 1016.5 hPa West 8 km/h 25.7 km/h 89% 5.33 mm
07:55 18.2 °C 16.5 °C 1016.8 hPa SW 11.3 km/h 17.7 km/h 90% 2.79 mm
08:00 17.8 °C 16.4 °C 1016.5 hPa West 9.7 km/h 16.1 km/h 92% 2.29 mm
08:05 17.6 °C 16.2 °C 1016.8 hPa SSW 6.4 km/h 9.7 km/h 92% 1.52 mm
08:10 17.4 °C 16.2 °C 1017.2 hPa SSW 6.4 km/h 16.1 km/h 93% 1.02 mm
08:15 17.3 °C 16.2 °C 1017.2 hPa WSW 3.2 km/h 8 km/h 93% 0 mm
08:20 17.3 °C 16.1 °C 1017.5 hPa SW 6.4 km/h 9.7 km/h 93% 0 mm
08:25 17.2 °C 16.1 °C 1017.5 hPa WSW 6.4 km/h 9.7 km/h 93% 0 mm
08:30 17.1 °C 16.1 °C 1017.5 hPa West 3.2 km/h 11.3 km/h 94% 14.48 mm
08:35 17.1 °C 16.1 °C 1017.5 hPa WSW 8 km/h 16.1 km/h 94% 2.54 mm
08:40 17.1 °C 15.9 °C 1017.2 hPa West 6.4 km/h 19.3 km/h 93% 1.52 mm
08:45 17 °C 15.8 °C 1017.5 hPa SW 8 km/h 16.1 km/h 93% 1.52 mm
08:46 17 °C 15.8 °C 1017.5 hPa WSW 3.2 km/h 16.1 km/h 93% 1.52 mm
08:51 16.9 °C 15.7 °C 1017.5 hPa WSW 17.7 km/h 22.5 km/h 92% 1.78 mm
08:56 16.9 °C 15.6 °C 1017.5 hPa SW 19.3 km/h 19.3 km/h 92% 1.78 mm
09:01 16.8 °C 15.4 °C 1017.5 hPa SW 12.9 km/h 16.1 km/h 92% 1.27 mm
09:06 16.7 °C 15.4 °C 1017.5 hPa SW 16.1 km/h 24.1 km/h 92% 0 mm
09:11 16.7 °C 15.4 °C 1017.5 hPa SSW 12.9 km/h 17.7 km/h 92% 0 mm
09:16 16.6 °C 15.3 °C 1017.5 hPa SSW 11.3 km/h 17.7 km/h 92% 0 mm
09:22 16.6 °C 15.3 °C 1017.5 hPa SSW 11.3 km/h 17.7 km/h 92% 0 mm
09:27 16.6 °C 15.3 °C 1017.5 hPa SW 16.1 km/h 17.7 km/h 92% 0 mm
09:32 16.6 °C 15.3 °C 1017.5 hPa SSW 14.5 km/h 17.7 km/h 92% 0 mm
09:37 16.7 °C 15.4 °C 1017.5 hPa SW 14.5 km/h 16.1 km/h 92% 0 mm
09:42 16.7 °C 15.3 °C 1017.8 hPa SW 12.9 km/h 22.5 km/h 91% 0 mm
09:47 16.8 °C 15.3 °C 1017.8 hPa WSW 14.5 km/h 20.9 km/h 91% 0 mm
09:52 16.8 °C 15.3 °C 1018.2 hPa South 6.4 km/h 22.5 km/h 91% 0 mm
09:57 16.9 °C 15.4 °C 1018.2 hPa WSW 12.9 km/h 14.5 km/h 91% 0 mm
10:02 16.9 °C 15.2 °C 1017.8 hPa SSE 17.7 km/h 19.3 km/h 90% 0 mm
10:07 16.9 °C 15.2 °C 1017.8 hPa SW 3.2 km/h 16.1 km/h 90% 0 mm
10:12 16.9 °C 15.3 °C 1017.8 hPa SSW 12.9 km/h 17.7 km/h 90% 0 mm
10:17 17 °C 15.5 °C 1017.8 hPa South 8 km/h 16.1 km/h 91% 0 mm
10:23 17.1 °C 15.4 °C 1017.8 hPa WSW 8 km/h 19.3 km/h 90% 0 mm
10:28 17.2 °C 15.6 °C 1017.5 hPa SSW 8 km/h 14.5 km/h 90% 0 mm
10:33 17.4 °C 15.6 °C 1017.2 hPa South 6.4 km/h 14.5 km/h 89% 0 mm
10:38 17.6 °C 15.9 °C 1017.2 hPa SE 9.7 km/h 14.5 km/h 90% 0 mm
10:43 17.7 °C 15.8 °C 1017.8 hPa SW 9.7 km/h 19.3 km/h 89% 0 mm
10:48 17.7 °C 16.1 °C 1018.2 hPa SSW 4.8 km/h 17.7 km/h 90% 0 mm
10:53 17.8 °C 15.9 °C 1018.2 hPa SSW 4.8 km/h 19.3 km/h 89% 0 mm
10:58 17.9 °C 16.1 °C 1018.5 hPa SW 12.9 km/h 14.5 km/h 89% 0 mm
11:03 18 °C 16.2 °C 1018.5 hPa SSW 12.9 km/h 16.1 km/h 89% 0 mm
11:08 18.1 °C 16.2 °C 1018.5 hPa SSW 16.1 km/h 19.3 km/h 89% 0 mm
11:13 18.1 °C 16.1 °C 1018.5 hPa SSW 11.3 km/h 20.9 km/h 88% 0 mm
11:18 18.2 °C 16.2 °C 1018.5 hPa WSW 11.3 km/h 14.5 km/h 88% 0 mm
11:23 18.3 °C 16.5 °C 1018.5 hPa WSW 8 km/h 11.3 km/h 89% 0 mm
11:28 18.4 °C 16 °C 1018.5 hPa SW 12.9 km/h 17.7 km/h 86% 0 mm
11:34 18.4 °C 16 °C 1018.2 hPa SSW 4.8 km/h 17.7 km/h 86% 0 mm
11:39 18.4 °C 16.1 °C 1018.5 hPa SW 9.7 km/h 17.7 km/h 86% 0 mm
11:44 18.6 °C 16.4 °C 1018.5 hPa SW 8 km/h 9.7 km/h 87% 0 mm
11:49 18.6 °C 16.1 °C 1018.8 hPa SSW 6.4 km/h 17.7 km/h 85% 0 mm
11:54 18.8 °C 16.4 °C 1018.8 hPa WSW 12.9 km/h 16.1 km/h 86% 0 mm
11:59 18.8 °C 15.8 °C 1018.8 hPa WSW 8 km/h 20.9 km/h 83% 0 mm
12:04 18.7 °C 15.9 °C 1018.8 hPa SW 8 km/h 17.7 km/h 84% 0 mm
12:09 18.7 °C 15.7 °C 1018.8 hPa West 4.8 km/h 16.1 km/h 83% 0 mm
12:14 18.7 °C 15.9 °C 1018.8 hPa West 8 km/h 11.3 km/h 84% 0 mm
12:19 18.6 °C 15.7 °C 1018.8 hPa WSW 8 km/h 16.1 km/h 83% 0 mm
12:24 18.6 °C 15.8 °C 1018.8 hPa SW 4.8 km/h 19.3 km/h 84% 0 mm
12:29 18.6 °C 15.5 °C 1018.8 hPa SSW 20.9 km/h 24.1 km/h 82% 0 mm
12:34 18.7 °C 15.7 °C 1018.8 hPa SW 8 km/h 24.1 km/h 83% 0 mm
12:39 18.8 °C 15.9 °C 1018.5 hPa SW 9.7 km/h 19.3 km/h 83% 0 mm
12:44 19.1 °C 16.3 °C 1018.5 hPa SW 19.3 km/h 19.3 km/h 84% 0 mm
12:49 19.3 °C 16.6 °C 1018.5 hPa SW 11.3 km/h 12.9 km/h 84% 0 mm
12:54 19.6 °C 16.6 °C 1018.5 hPa SW 9.7 km/h 17.7 km/h 83% 0 mm
12:59 19.6 °C 16.6 °C 1018.5 hPa WSW 24.1 km/h 24.1 km/h 83% 0 mm
13:04 19.4 °C 16.3 °C 1018.5 hPa SW 12.9 km/h 24.1 km/h 82% 0 mm
13:09 19.3 °C 16.2 °C 1018.5 hPa SW 12.9 km/h 24.1 km/h 82% 0 mm
13:15 19.4 °C 16.5 °C 1018.5 hPa SW 8 km/h 20.9 km/h 83% 0 mm
13:20 19.4 °C 16.3 °C 1018.5 hPa SW 17.7 km/h 20.9 km/h 82% 0 mm
13:25 19.3 °C 16.3 °C 1018.5 hPa WSW 17.7 km/h 20.9 km/h 83% 0 mm
13:30 19.3 °C 16.5 °C 1018.2 hPa WSW 6.4 km/h 16.1 km/h 84% 0 mm
13:35 19.4 °C 16.4 °C 1018.2 hPa SW 9.7 km/h 12.9 km/h 83% 0 mm
13:40 19.4 °C 16.7 °C 1018.2 hPa SW 9.7 km/h 9.7 km/h 84% 0 mm
13:45 19.5 °C 16.3 °C 1017.8 hPa SW 6.4 km/h 12.9 km/h 82% 0 mm
13:50 19.5 °C 16.3 °C 1017.8 hPa SSW 8 km/h 12.9 km/h 82% 0 mm
13:55 19.6 °C 16.2 °C 1017.8 hPa WSW 8 km/h 17.7 km/h 81% 0 mm
14:00 19.6 °C 16.4 °C 1017.8 hPa WSW 6.4 km/h 14.5 km/h 82% 0 mm
14:05 19.5 °C 15.9 °C 1017.8 hPa WSW 8 km/h 16.1 km/h 80% 0 mm
14:10 19.6 °C 15.8 °C 1017.8 hPa SW 11.3 km/h 14.5 km/h 79% 0 mm
14:15 19.7 °C 16.3 °C 1017.8 hPa SW 6.4 km/h 11.3 km/h 81% 0 mm
14:20 20.1 °C 16.3 °C 1017.8 hPa WNW 9.7 km/h 11.3 km/h 79% 0 mm
14:25 19.9 °C 15.9 °C 1017.8 hPa WSW 4.8 km/h 14.5 km/h 78% 0 mm
14:30 20.2 °C 16.2 °C 1018.2 hPa WSW 11.3 km/h 16.1 km/h 78% 0 mm
14:35 20.2 °C 16 °C 1018.2 hPa WNW 9.7 km/h 12.9 km/h 77% 0 mm
14:36 20.2 °C 16 °C 1018.2 hPa West 11.3 km/h 14.5 km/h 77% 0 mm
14:41 20.4 °C 16.5 °C 1018.2 hPa West 11.3 km/h 16.1 km/h 78% 0 mm
14:46 20.7 °C 16.3 °C 1018.2 hPa WSW 11.3 km/h 12.9 km/h 76% 0 mm
14:51 20.6 °C 15.8 °C 1018.2 hPa WSW 9.7 km/h 16.1 km/h 74% 0 mm
14:57 20.5 °C 15.9 °C 1018.5 hPa WSW 17.7 km/h 17.7 km/h 75% 0 mm
15:01 20.5 °C 16.1 °C 1018.5 hPa SW 9.7 km/h 12.9 km/h 76% 0 mm
15:07 20.4 °C 16 °C 1018.5 hPa West 8 km/h 14.5 km/h 76% 0 mm
15:12 20.4 °C 16.5 °C 1018.5 hPa WSW 4.8 km/h 14.5 km/h 78% 0 mm
15:17 21 °C 16.6 °C 1018.5 hPa West 8 km/h 11.3 km/h 76% 0 mm
15:21 20.9 °C 15.5 °C 1018.5 hPa WNW 14.5 km/h 16.1 km/h 71% 0 mm
15:27 20.8 °C 15.4 °C 1018.5 hPa SW 4.8 km/h 19.3 km/h 71% 0 mm
15:32 20.9 °C 15.4 °C 1018.5 hPa WSW 12.9 km/h 16.1 km/h 71% 0 mm
15:37 21.1 °C 15.8 °C 1018.5 hPa WNW 4.8 km/h 9.7 km/h 72% 0 mm
15:42 21.2 °C 15.3 °C 1018.5 hPa WNW 8 km/h 14.5 km/h 69% 0 mm
15:47 21.1 °C 15.6 °C 1018.5 hPa West 11.3 km/h 11.3 km/h 71% 0 mm
15:52 21.2 °C 15.9 °C 1018.5 hPa West 6.4 km/h 14.5 km/h 72% 0 mm
15:57 21.4 °C 16.3 °C 1018.5 hPa WSW 9.7 km/h 11.3 km/h 73% 0 mm
16:02 21.8 °C 16.1 °C 1018.5 hPa SW 8 km/h 12.9 km/h 70% 0 mm
16:07 21.9 °C 15.9 °C 1018.2 hPa West 3.2 km/h 8 km/h 69% 0 mm
16:12 21.9 °C 15.7 °C 1018.5 hPa West 8 km/h 14.5 km/h 68% 0 mm
16:17 21.8 °C 15.9 °C 1018.5 hPa South 3.2 km/h 11.3 km/h 69% 0 mm
16:22 21.7 °C 15.6 °C 1018.5 hPa SW 3.2 km/h 11.3 km/h 68% 0 mm
16:27 21.9 °C 16 °C 1018.5 hPa SW 9.7 km/h 12.9 km/h 69% 0 mm
16:33 22.1 °C 16.2 °C 1018.2 hPa SW 4.8 km/h 11.3 km/h 69% 0 mm
16:38 22 °C 16.3 °C 1018.2 hPa WNW 4.8 km/h 6.4 km/h 70% 0 mm
16:43 21.8 °C 15.7 °C 1018.2 hPa WNW 1.6 km/h 11.3 km/h 68% 0 mm
16:48 21.8 °C 16.3 °C 1018.2 hPa WSW 8 km/h 9.7 km/h 71% 0 mm
16:53 21.9 °C 16 °C 1018.2 hPa West 6.4 km/h 9.7 km/h 69% 0 mm
16:58 22.1 °C 15.4 °C 1018.2 hPa WSW 8 km/h 16.1 km/h 66% 0 mm
17:03 22.1 °C 15.7 °C 1018.2 hPa West 11.3 km/h 14.5 km/h 67% 0 mm
17:08 22.2 °C 15.8 °C 1018.2 hPa West 11.3 km/h 16.1 km/h 67% 0 mm
17:13 22.5 °C 15.6 °C 1018.2 hPa WSW 11.3 km/h 12.9 km/h 65% 0 mm
17:18 22.7 °C 15.8 °C 1018.2 hPa West 9.7 km/h 14.5 km/h 65% 0 mm
17:23 22.3 °C 15.4 °C 1018.2 hPa WSW 8 km/h 14.5 km/h 65% 0 mm
17:29 22 °C 15.6 °C 1018.2 hPa West 3.2 km/h 16.1 km/h 67% 0 mm
17:34 21.9 °C 15.5 °C 1018.2 hPa West 6.4 km/h 12.9 km/h 67% 0 mm
17:39 21.9 °C 15.5 °C 1018.2 hPa SW 11.3 km/h 16.1 km/h 67% 0 mm
17:44 21.9 °C 15.7 °C 1018.5 hPa WNW 6.4 km/h 11.3 km/h 68% 0 mm
17:49 22.4 °C 15.9 °C 1018.5 hPa WNW 9.7 km/h 12.9 km/h 67% 0 mm
17:54 22.6 °C 15.7 °C 1018.5 hPa WSW 14.5 km/h 17.7 km/h 65% 0 mm
17:59 22.4 °C 15.3 °C 1018.5 hPa West 11.3 km/h 14.5 km/h 64% 0 mm
18:05 22.2 °C 15.8 °C 1018.8 hPa West 8 km/h 11.3 km/h 67% 0 mm
18:10 21.9 °C 15.5 °C 1018.8 hPa NW 9.7 km/h 9.7 km/h 67% 0 mm
18:15 21.6 °C 15.2 °C 1018.8 hPa WNW 3.2 km/h 9.7 km/h 67% 0 mm
18:20 21.5 °C 15.6 °C 1018.8 hPa WNW 6.4 km/h 11.3 km/h 69% 0 mm
18:25 21.4 °C 15.7 °C 1018.8 hPa WNW 4.8 km/h 11.3 km/h 70% 0 mm
18:30 21.1 °C 15.2 °C 1018.8 hPa WNW 9.7 km/h 12.9 km/h 69% 0 mm
18:35 20.9 °C 15 °C 1018.8 hPa WNW 4.8 km/h 9.7 km/h 69% 0 mm
18:40 20.8 °C 15.3 °C 1018.8 hPa WNW 4.8 km/h 6.4 km/h 71% 0 mm
18:45 20.7 °C 15.5 °C 1019.2 hPa NW 6.4 km/h 6.4 km/h 72% 0 mm
18:50 20.6 °C 15.4 °C 1018.8 hPa WNW 4.8 km/h 9.7 km/h 72% 0 mm
18:55 20.5 °C 15.3 °C 1018.8 hPa NW 6.4 km/h 9.7 km/h 72% 0 mm
19:00 20.4 °C 15.4 °C 1019.2 hPa WNW 3.2 km/h 9.7 km/h 73% 0 mm
19:05 20.2 °C 15.2 °C 1019.2 hPa WNW 9.7 km/h 12.9 km/h 73% 0 mm
19:10 20.1 °C 15.1 °C 1018.8 hPa NW 4.8 km/h 11.3 km/h 73% 0 mm
19:15 19.9 °C 15.2 °C 1018.8 hPa NW 6.4 km/h 9.7 km/h 74% 0 mm
19:20 19.9 °C 15.3 °C 1018.8 hPa NW 6.4 km/h 8 km/h 75% 0 mm
19:25 19.8 °C 15.3 °C 1018.8 hPa NNW 4.8 km/h 9.7 km/h 75% 0 mm
19:30 19.8 °C 15.2 °C 1018.8 hPa NNW 4.8 km/h 8 km/h 75% 0 mm
19:35 19.7 °C 15.1 °C 1018.8 hPa NNW 4.8 km/h 6.4 km/h 75% 0 mm
19:40 19.6 °C 15.3 °C 1018.8 hPa NW 3.2 km/h 4.8 km/h 76% 0 mm
19:45 19.5 °C 15.2 °C 1019.2 hPa NW 3.2 km/h 4.8 km/h 76% 0 mm
19:50 19.4 °C 15.1 °C 1019.2 hPa NW 1.6 km/h 3.2 km/h 76% 0 mm
19:55 19.3 °C 15 °C 1019.2 hPa NW 3.2 km/h 4.8 km/h 76% 0 mm
20:00 19.2 °C 14.8 °C 1019.2 hPa NW 3.2 km/h 8 km/h 76% 0 mm
20:05 18.9 °C 14.8 °C 1019.2 hPa NW 3.2 km/h 4.8 km/h 77% 0 mm
20:11 18.8 °C 14.9 °C 1019.2 hPa NW 4.8 km/h 6.4 km/h 78% 0 mm
20:16 18.6 °C 14.7 °C 1019.5 hPa NNW 3.2 km/h 3.2 km/h 78% 0 mm
20:21 18.3 °C 14.6 °C 1019.5 hPa NNW 3.2 km/h 4.8 km/h 79% 0 mm
20:26 18.1 °C 14.8 °C 1019.5 hPa NNW 3.2 km/h 3.2 km/h 81% 0 mm
20:31 17.9 °C 14.8 °C 1019.5 hPa NNW 1.6 km/h 3.2 km/h 82% 0 mm
20:36 17.8 °C 14.7 °C 1019.5 hPa NW 4.8 km/h 4.8 km/h 82% 0 mm
20:41 17.8 °C 14.5 °C 1019.5 hPa NW 3.2 km/h 3.2 km/h 81% 0 mm
20:46 17.7 °C 14.4 °C 1019.9 hPa North 1.6 km/h 3.2 km/h 81% 0 mm
20:51 17.6 °C 14.5 °C 1019.5 hPa NNE 3.2 km/h 3.2 km/h 82% 0 mm
20:56 17.5 °C 14.6 °C 1019.5 hPa NW 1.6 km/h 3.2 km/h 83% 0 mm
21:01 17.3 °C 14.4 °C 1019.5 hPa NW 3.2 km/h 3.2 km/h 83% 0 mm
21:06 17.2 °C 14.3 °C 1019.9 hPa NW 3.2 km/h 4.8 km/h 83% 0 mm
21:11 17.1 °C 14.2 °C 1019.9 hPa NNW 1.6 km/h 3.2 km/h 83% 0 mm
21:16 17.1 °C 14.2 °C 1019.9 hPa NNW 1.6 km/h 3.2 km/h 83% 0 mm
21:21 17 °C 14.3 °C 1019.9 hPa NNW 1.6 km/h 3.2 km/h 84% 0 mm
21:26 16.9 °C 14.2 °C 1020.2 hPa Calm   1.6 km/h 84% 0 mm
21:31 16.8 °C 14.1 °C 1020.2 hPa Calm   1.6 km/h 84% 0 mm
21:37 16.7 °C 14 °C 1020.2 hPa Calm     84% 0 mm
21:42 16.6 °C 14.1 °C 1020.2 hPa Calm     85% 0 mm
21:47 16.6 °C 14.2 °C 1020.5 hPa Calm   1.6 km/h 86% 0 mm
21:52 16.6 °C 14 °C 1020.5 hPa Calm   1.6 km/h 85% 0 mm
21:57 16.5 °C 14 °C 1020.9 hPa Calm     85% 0 mm
22:02 16.5 °C 14.2 °C 1020.9 hPa Calm   1.6 km/h 86% 0 mm
22:07 16.4 °C 14.1 °C 1020.9 hPa NNW 1.6 km/h 1.6 km/h 86% 0 mm
22:12 16.3 °C 14 °C 1020.9 hPa Calm     86% 0 mm
22:17 16.3 °C 13.9 °C 1021.2 hPa Calm     86% 0 mm
22:22 16.2 °C 14 °C 1021.2 hPa Calm   1.6 km/h 87% 0 mm
22:27 16.1 °C 13.9 °C 1021.2 hPa NW 3.2 km/h 3.2 km/h 87% 0 mm
22:32 16.1 °C 13.9 °C 1021.2 hPa WNW 1.6 km/h 3.2 km/h 87% 0 mm
22:37 16.1 °C 13.9 °C 1021.2 hPa WNW 1.6 km/h 4.8 km/h 87% 0 mm
22:42 16.1 °C 13.8 °C 1021.2 hPa NW 1.6 km/h 3.2 km/h 86% 0 mm
22:47 16.1 °C 13.8 °C 1021.6 hPa NW 3.2 km/h 4.8 km/h 86% 0 mm
22:52 16.1 °C 13.8 °C 1021.6 hPa NW 1.6 km/h 4.8 km/h 86% 0 mm
22:57 16.1 °C 13.8 °C 1021.6 hPa NNW 3.2 km/h 6.4 km/h 86% 0 mm
23:02 16.1 °C 13.9 °C 1021.6 hPa NNW 3.2 km/h 4.8 km/h 87% 0 mm
23:07 16 °C 13.8 °C 1021.2 hPa North 4.8 km/h 6.4 km/h 87% 0 mm
23:12 15.9 °C 13.8 °C 1021.2 hPa NNW 3.2 km/h 4.8 km/h 87% 0 mm
23:17 15.9 °C 13.8 °C 1021.2 hPa NW 3.2 km/h 4.8 km/h 87% 0 mm
23:22 15.9 °C 13.7 °C 1021.2 hPa North 3.2 km/h 4.8 km/h 87% 0 mm
23:27 15.8 °C 13.7 °C 1021.2 hPa NW 4.8 km/h 6.4 km/h 87% 0 mm
23:32 15.8 °C 13.6 °C 1021.2 hPa NW 4.8 km/h 4.8 km/h 87% 0 mm
23:37 15.7 °C 13.6 °C 1021.2 hPa NNW 3.2 km/h 6.4 km/h 87% 0 mm
23:42 15.7 °C 13.7 °C 1021.2 hPa North 6.4 km/h 6.4 km/h 88% 0 mm
23:47 15.7 °C 13.5 °C 1021.2 hPa NNW 3.2 km/h 4.8 km/h 87% 0 mm
23:52 15.6 °C 13.6 °C 1020.9 hPa NW 3.2 km/h 6.4 km/h 88% 0 mm
23:57 15.6 °C 13.6 °C 1020.9 hPa NW 3.2 km/h 8 km/h 88% 0 mm
Compliments of Weather Underground